[[{"header":{"parameterUnit":"m.s-1","parameterCategory":1,"la1":30.2991,"la2":30.254,"lo1":-89.0895,"lo2":-89.0444,"dy":0.0017,"dx":0.0017,"nx":28,"ny":28,"refTime":"2025-08-02T09:00:00:Z","depth":0,"parameterNumber":2,"parameterNumberName":"U-component_of_WINDS"},"data":[0,0,0,0,0,0,0,0,0,0,0,0,0,0,0,0,0,0,0,0,0,0,0,0,0,0,0,0,0,0,0,0,0,0,0,0,0,0,0,0,0,0,0,0,0,0,0,0,0,0,0,0,0,0,0,0,0,0,1.0735,1.0736,0,1.0822,1.0823,1.0824,1.0854,1.0854,1.0853,1.0853,1.0943,1.0946,1.0949,0,0,0,0,0,0,0,0,0,0,0,0,0,1.0596,1.0598,1.0735,1.0736,1.0737,1.0822,1.0823,1.0825,1.0854,1.0854,1.0853,1.0853,1.0942,1.0946,1.0949,0,0,0,0,0,0,0,0,0,0,0,0,0,1.0667,1.0599,1.0735,1.0762,1.0765,1.0822,1.0823,1.0825,1.0854,1.0854,1.0853,1.0852,1.0941,1.0945,1.0949,1.0985,0,0,1.0962,1.0964,0,0,0,0,0,0,0,0,1.0663,1.0672,1.0757,1.076,1.0764,1.0827,1.0808,1.0879,1.0854,1.082,1.0853,1.0852,1.0905,1.0912,1.093,1.099,1.0994,1.0962,1.0965,1.0967,1.0968,0,0,0,0,0,0,0,1.0658,1.0669,1.077,1.0758,1.0763,1.0771,1.078,1.0821,1.0865,1.0823,1.0826,1.0836,1.0907,1.0926,1.0932,1.0995,1.0962,1.0966,1.0968,1.097,1.1091,1.1091,0,0,0,0,0,0,1.0648,1.0664,1.0767,1.0772,1.0711,1.0774,1.0784,1.0807,1.0864,1.0872,1.0836,1.0837,1.0919,1.0927,1.0935,1.0982,1.0967,1.097,1.0973,1.109,1.1091,1.1092,0,0,0,0,0,0,1.0645,1.0657,1.0763,1.0719,1.0733,1.0777,1.0802,1.0809,1.0828,1.0874,1.0882,1.0847,1.0919,1.0929,1.0973,1.0986,1.0972,1.0976,1.1089,1.109,1.1091,1.1075,0,0,0,0,0,0,1.0641,1.0656,1.0669,1.0719,1.0735,1.0799,1.0803,1.0811,1.0835,1.0836,1.0886,1.0894,1.0919,1.0967,1.0977,1.0991,1.0979,1.1088,1.109,1.1091,1.1075,1.1076,1.1076,0,0,0,0,0,1.0636,1.0661,1.067,1.0682,1.0753,1.0799,1.0809,1.0837,1.0836,1.085,1.088,1.0892,1.0983,1.0971,1.0983,1.0998,1.1087,1.1089,1.1091,1.1074,1.1075,1.1076,0,0,0,0,0,0,1.0612,1.0668,1.0678,1.072,1.0755,1.0804,1.0823,1.0837,1.0873,1.0873,1.0907,1.0918,1.0959,1.0983,1.0969,1.1037,1.1036,1.104,1.1019,1.1021,1.1021,1.1015,1.0983,0,0,0,0,0,1.0611,1.0644,1.0692,1.0724,1.0741,1.0779,1.08,1.0819,1.0856,1.0871,1.0904,1.094,1.0977,1.1,1.1036,1.1079,1.1091,1.1095,1.1096,1.1097,1.11,1.1125,1.1128,1.1097,1.1097,1.1097,0,0,1.0611,1.0646,1.0664,1.072,1.0749,1.0783,1.0791,1.0826,1.0851,1.0877,1.092,1.0945,1.0988,1.1031,1.1052,1.1053,1.1111,1.1099,1.1099,1.1102,1.1127,1.113,1.1133,1.1098,1.1098,1.1098,0,0,1.0627,1.0656,1.0687,1.0716,1.076,1.0785,1.0793,1.0841,1.0859,1.0902,1.0922,1.0954,1.1016,1.1046,1.1069,1.1098,1.1112,1.1109,1.1113,1.1138,1.114,1.1142,1.1153,1.1157,1.1112,1.1112,1.1112,0,1.062,1.0671,1.0701,1.0735,1.076,1.0785,1.0817,1.0843,1.0897,1.0914,1.0914,1.0993,1.1024,1.1075,1.1082,1.11,1.111,1.1103,1.1137,1.114,1.1142,1.1153,1.1157,1.1112,1.1112,1.1112,1.1112,0,1.0662,1.0697,1.0717,1.0768,1.0795,1.0828,1.0863,1.0887,1.0904,1.093,1.0975,1.1013,1.1057,1.1071,1.1088,1.1125,1.1124,1.113,1.113,1.1144,1.1155,1.116,1.1111,1.1111,1.1111,1.1111,0,0,1.0663,1.0732,1.0739,1.0763,1.0814,1.0842,1.0877,1.092,1.0941,1.0977,1.1008,1.106,1.1067,1.1093,1.1114,1.1135,1.1157,1.1139,1.1141,1.1141,1.1202,1.1197,1.1201,1.1167,1.1168,1.1168,1.1198,0,1.0686,1.0749,1.0777,1.0827,1.0861,1.0886,1.0916,1.0951,1.0977,1.1009,1.1038,1.1075,1.108,1.1096,1.1119,1.115,1.117,1.1148,1.1196,1.1197,1.1184,1.1207,1.1201,1.1228,1.1203,1.1203,1.1204,0,1.0721,1.0758,1.0811,1.0859,1.0875,1.0901,1.0944,1.0975,1.1016,1.1033,1.1064,1.1084,1.1122,1.112,1.1174,1.1158,1.118,1.1198,1.12,1.1205,1.1201,1.1213,1.1237,1.1241,1.1211,1.121,1.121,0,1.0717,1.078,1.0821,1.0841,1.0898,1.0916,1.0941,1.0982,1.1006,1.1045,1.1061,1.1103,1.1126,1.1159,1.119,1.1185,1.1242,1.1242,1.1258,1.1257,1.1268,1.1267,1.1296,1.1282,1.1282,1.1282,1.1282,0,1.074,1.0771,1.082,1.0845,1.0882,1.0915,1.0951,1.0977,1.1014,1.1045,1.1069,1.1098,1.1137,1.1172,1.1197,1.1238,1.1248,1.1264,1.127,1.1262,1.126,1.1276,1.1275,1.1283,1.1283,1.1282,1.1282,0,1.0741,1.0775,1.0821,1.0872,1.0886,1.0911,1.0955,1.098,1.1007,1.1047,1.1058,1.11,1.1142,1.1177,1.1232,1.1248,1.1292,1.1299,1.1278,1.1281,1.1295,1.1293,1.1336,1.1343,1.1324,1.1324,1.1324,0,1.0753,1.0778,1.0832,1.0855,1.088,1.0915,1.0941,1.0976,1.1002,1.1051,1.1071,1.1114,1.1151,1.1216,1.1253,1.1295,1.1304,1.1316,1.131,1.1301,1.1304,1.1302,1.1305,1.1316,1.1316,1.1316,1.1316,0,1.0771,1.0787,1.0823,1.0865,1.0895,1.0931,1.0966,1.0983,1.1025,1.1053,1.1096,1.1124,1.118,1.1223,1.127,1.1296,1.1313,1.1317,1.1323,1.1315,1.1302,1.1309,1.1279,1.1316,1.1316,1.1316,1.1316,1.1316,1.0778,1.0802,1.0844,1.0884,1.0915,1.0948,1.0975,1.1006,1.1042,1.109,1.1109,1.1153,1.1195,1.1259,1.1286,1.1321,1.1323,1.1332,1.1334,1.1336,1.1335,1.1296,1.133,1.133,1.133,1.133,1.133,0,1.0798,1.0826,1.0863,1.0912,1.0944,1.0957,1.0998,1.1023,1.1062,1.1099,1.1135,1.1185,1.1227,1.1267,1.1312,1.1333,1.1342,1.1343,1.1342,1.1348,1.133,1.1321,1.1336,1.1336,1.1336,1.1336,1.1336,1.1336,1.0811,1.0853,1.0874,1.0931,1.096,1.1003,1.1025,1.1056,1.1087,1.1141,1.1177,1.1203,1.1242,1.129,1.1329,1.134,1.1356,1.1355,1.1368,1.135,1.1349,1.1348,1.134,1.1358,1.1358,1.1383,1.1384,1.1384]},{"header":{"parameterUnit":"m.s-1","parameterCategory":1,"la1":30.2991,"la2":30.254,"lo1":-89.0895,"lo2":-89.0444,"dy":0.0017,"dx":0.0017,"nx":28,"ny":28,"refTime":"2025-08-02T09:00:00:Z","depth":0,"parameterNumber":3,"parameterNumberName":"V-component_of_WINDS"},"data":[0,0,0,0,0,0,0,0,0,0,0,0,0,0,0,0,0,0,0,0,0,0,0,0,0,0,0,0,0,0,0,0,0,0,0,0,0,0,0,0,0,0,0,0,0,0,0,0,0,0,0,0,0,0,0,0,0,0,1.6812,1.6812,0,1.6868,1.6868,1.6869,1.6873,1.6872,1.6871,1.6871,1.6926,1.6928,1.693,0,0,0,0,0,0,0,0,0,0,0,0,0,1.6702,1.6704,1.6811,1.6812,1.6813,1.6867,1.6868,1.6869,1.6873,1.6872,1.6871,1.687,1.6925,1.6928,1.693,0,0,0,0,0,0,0,0,0,0,0,0,0,1.6753,1.6704,1.6811,1.6821,1.6823,1.6867,1.6868,1.6869,1.6873,1.6872,1.6871,1.687,1.6925,1.6928,1.6931,1.6969,0,0,1.694,1.6941,0,0,0,0,0,0,0,0,1.675,1.6757,1.6819,1.6821,1.6822,1.6862,1.685,1.6902,1.6873,1.6854,1.6871,1.687,1.6905,1.691,1.6923,1.6971,1.6973,1.694,1.6942,1.6944,1.6944,0,0,0,0,0,0,0,1.6746,1.6754,1.6834,1.682,1.6822,1.6821,1.6827,1.686,1.6884,1.6855,1.6856,1.6862,1.6906,1.692,1.6924,1.6974,1.694,1.6943,1.6945,1.6946,1.705,1.7051,0,0,0,0,0,0,1.6741,1.6751,1.6832,1.6835,1.6783,1.6824,1.6831,1.685,1.6884,1.6888,1.6863,1.6862,1.6915,1.692,1.6926,1.6969,1.6943,1.6946,1.6948,1.705,1.7051,1.7052,0,0,0,0,0,0,1.6739,1.6749,1.683,1.6793,1.6804,1.6827,1.6849,1.6852,1.6865,1.689,1.6894,1.6873,1.6914,1.6921,1.6957,1.6971,1.6948,1.6951,1.7048,1.705,1.7051,1.7057,0,0,0,0,0,0,1.6736,1.6748,1.6764,1.6794,1.6806,1.6861,1.685,1.6854,1.6871,1.687,1.69,1.6904,1.6914,1.6952,1.696,1.6975,1.6953,1.7047,1.7049,1.7051,1.7056,1.7058,1.7061,0,0,0,0,0,1.6732,1.6764,1.6765,1.6775,1.6827,1.6862,1.6869,1.6881,1.6872,1.6887,1.6902,1.6903,1.6968,1.6956,1.6964,1.698,1.7046,1.7049,1.7051,1.7055,1.7058,1.7061,0,0,0,0,0,0,1.6737,1.6769,1.677,1.6813,1.6835,1.6863,1.6883,1.6885,1.6909,1.6908,1.692,1.6927,1.696,1.6974,1.696,1.7016,1.7006,1.701,1.7006,1.7009,1.7012,1.7007,1.6956,0,0,0,0,0,1.6743,1.677,1.6796,1.6832,1.6842,1.686,1.6877,1.6883,1.6906,1.6915,1.6933,1.6954,1.6978,1.6995,1.7019,1.7057,1.7062,1.7072,1.7075,1.7077,1.708,1.7096,1.71,1.7058,1.7058,1.7058,0,0,1.6756,1.6776,1.6793,1.6833,1.6851,1.6876,1.6868,1.6897,1.6916,1.692,1.6953,1.6966,1.699,1.7026,1.7042,1.7038,1.7092,1.7079,1.7081,1.7083,1.7099,1.7103,1.7106,1.706,1.706,1.7059,0,0,1.6792,1.6812,1.6841,1.6858,1.6884,1.6895,1.6902,1.6929,1.6937,1.6971,1.6973,1.6994,1.7038,1.7053,1.7067,1.7103,1.7103,1.711,1.7124,1.714,1.7143,1.7146,1.7155,1.7159,1.7113,1.7113,1.7113,0,1.6804,1.6845,1.6856,1.6883,1.6899,1.6902,1.693,1.6946,1.6979,1.6988,1.6983,1.7034,1.7051,1.7088,1.7096,1.7108,1.7114,1.7107,1.7142,1.7145,1.7147,1.7157,1.7161,1.7114,1.7114,1.7114,1.7114,0,1.6856,1.6884,1.6904,1.6934,1.6952,1.698,1.6993,1.7009,1.7013,1.7023,1.7055,1.7074,1.7101,1.711,1.7115,1.7146,1.7142,1.7139,1.713,1.7152,1.7161,1.7165,1.7115,1.7114,1.7114,1.7114,0,0,1.69,1.6932,1.694,1.6951,1.6978,1.6998,1.7024,1.7049,1.7061,1.7082,1.7102,1.7136,1.7132,1.7147,1.7153,1.7168,1.719,1.7162,1.7163,1.7164,1.7221,1.7223,1.7227,1.719,1.7191,1.7191,1.7219,0,1.6937,1.6984,1.6992,1.7032,1.7054,1.7055,1.7077,1.7094,1.7104,1.7123,1.7133,1.7156,1.7151,1.7159,1.7173,1.7184,1.7201,1.7183,1.7206,1.7207,1.7199,1.7232,1.7235,1.7259,1.7222,1.7223,1.7224,0,1.6987,1.7007,1.7049,1.7068,1.7078,1.7098,1.7119,1.7138,1.7156,1.7161,1.7176,1.7179,1.7203,1.7192,1.7222,1.7209,1.7219,1.7226,1.7227,1.7229,1.7216,1.7233,1.7268,1.7271,1.723,1.7229,1.7229,0,1.701,1.7048,1.7077,1.7087,1.7111,1.7124,1.7134,1.7151,1.7164,1.7182,1.719,1.7211,1.7222,1.7237,1.7244,1.7236,1.7273,1.7264,1.7276,1.7276,1.7284,1.7283,1.7319,1.7293,1.7293,1.7292,1.7292,0,1.705,1.7074,1.7087,1.7105,1.7131,1.7139,1.7164,1.7174,1.7188,1.7205,1.7208,1.7224,1.7234,1.725,1.7256,1.7278,1.7284,1.7287,1.7288,1.7287,1.7286,1.7293,1.7291,1.7293,1.7293,1.7293,1.7293,0,1.708,1.709,1.7121,1.7139,1.7144,1.7163,1.7178,1.7193,1.7201,1.7223,1.7228,1.7241,1.726,1.7269,1.7293,1.7297,1.7322,1.7322,1.7316,1.7316,1.7327,1.7325,1.7368,1.7372,1.7344,1.7344,1.7345,0,1.7104,1.7123,1.7142,1.7154,1.7164,1.7183,1.7196,1.7203,1.7215,1.7234,1.7247,1.7266,1.7282,1.7312,1.7322,1.734,1.734,1.7353,1.7342,1.7338,1.7337,1.7335,1.7336,1.7355,1.7355,1.7356,1.7356,0,1.7144,1.7147,1.7165,1.7183,1.7198,1.7213,1.7228,1.7237,1.7246,1.7259,1.7278,1.729,1.7314,1.7332,1.7349,1.7358,1.7357,1.7359,1.7362,1.736,1.7354,1.7355,1.7319,1.7358,1.7358,1.7358,1.7357,1.7357,1.717,1.7185,1.72,1.7218,1.7229,1.7242,1.7256,1.7265,1.7281,1.7301,1.7303,1.7323,1.7336,1.7359,1.7368,1.7383,1.7379,1.7385,1.7386,1.7387,1.7386,1.7353,1.7386,1.7386,1.7386,1.7386,1.7386,0,1.7207,1.7216,1.7233,1.7252,1.7266,1.7264,1.7279,1.729,1.7308,1.732,1.7335,1.7355,1.7371,1.7381,1.7397,1.7406,1.7406,1.741,1.7409,1.741,1.739,1.7384,1.741,1.741,1.741,1.741,1.741,1.741,1.7229,1.7252,1.7256,1.7283,1.7292,1.7311,1.7319,1.733,1.7339,1.7361,1.7375,1.7381,1.7392,1.7408,1.7422,1.7424,1.7429,1.7433,1.7434,1.7415,1.7412,1.741,1.7405,1.7434,1.7434,1.7454,1.7454,1.7454]}]]